Regional Weather Roundup
Issued by NWS Goodland, KS

Home | Current Version | Previous Version | Graphics & Text | Print | Product List | Glossary On
Versions: 1 2 3 4 5 6 7 8 9 10 11 12 13 14 15 16 17 18 19 20 21 22 23 24 25 26 27 28 29 30 31 32 33 34 35 36 37 38 39 40 41 42 43 44 45 46 47 48 49 50
000
ASUS43 KGLD 131308
RWRGLD

GOODLAND FORECAST AREA HOURLY WEATHER ROUNDUP
NATIONAL WEATHER SERVICE GOODLAND KS
600 AM MST WED DEC 13 2017

...OFFICIAL OBSERVATIONS...

CITY           SKY/WX    TMP DP  RH WIND       PRES   REMARKS
GOODLAND KS    CLOUDY    45  10  24 NW16      30.03R
HILL CITY KS   CLOUDY    46  16  30 NW10      29.95R
IMPERIAL NEB   CLOUDY    50  14  23 NW20G32   30.00R
MCCOOK NEB     CLOUDY    41  17  38 W10       29.96R
AKRON CO       CLOUDY    44   9  23 MISG      30.09R
BURLINGTON CO  CLOUDY    46  11  24 N17G26    30.07R
LIMON CO       CLOUDY    37   7  28 N15       30.13R
$$

...UNOFFICIAL OBSERVATIONS...

CITY           SKY/WX    TMP DP  RH WIND       PRES   REMARKS
COLBY KS       CLOUDY    43  18  36 NW12      30.02R
LENORA KS        N/A     42  32  68 NW9         N/A
NORTON KS      PTCLDY    41  10  28 W12       29.94
SHARON SPRINGS   N/A     46  12  25 NW20G26     N/A
TRIBUNE KS     CLOUDY    39  12  33 NW12      30.06
TRENTON NEB      N/A     49  32  52 NW10        N/A
YUMA CO        FAIR      43  10  26 NW13      30.08R
$$




USA.gov is the U.S. government's official web portal to all federal, state and local government web resources and services.